Theta_e
301 302 302 302 301 301 302 302 302 302 302 302 302 301 301 301 302 302 301 302 302 303 303 303 302 302 301 301 301 301 301 301 301 300 300 299 299 299 298 298 298 298 298 297 297 297 297 297 297 298 297 298 298 297 297 298 298 298 297 295 295 294 294 293 291 290 284 283 285 286 288 288 286 287 287 287 286 285 288 287 289 289 289 289 290
301 301 301 302 301 301 301 301 302 302 301 301 301 301 301 301 302 301 301 302 302 303 302 302 302 301 301 300 301 301 301 301 300 300 299 299 299 299 298 298 298 297 297 297 296 297 297 296 296 296 296 297 296 296 296 296 296 296 295 295 295 294 294 293 292 290 288 282 280 281 284 287 288 286 289 287 287 286 286 287 288 288 287 288 290
301 301 301 301 301 301 301 301 301 301 301 301 301 301 301 301 301 302 301 301 301 301 301 301 301 301 300 300 300 300 300 300 300 300 299 299 298 298 298 297 297 297 296 297 296 296 296 296 296 296 296 296 296 295 295 295 295 295 295 294 295 294 293 294 292 290 290 283 280 281 282 284 287 286 287 289 289 287 286 287 287 287 287 286 288
299 299 298 299 299 299 300 300 300 301 300 301 300 301 301 301 300 301 300 299 300 300 300 300 300 300 300 299 299 299 299 299 299 299 299 298 298 298 297 297 297 297 297 297 296 296 296 295 295 295 295 295 295 294 293 294 294 294 294 294 294 294 293 293 294 293 290 287 280 281 281 282 283 282 285 285 286 286 287 287 286 287 286 286 286
298 297 297 298 298 298 298 299 299 299 299 299 299 299 299 300 299 300 300 300 299 299 299 298 299 299 299 299 298 298 299 299 299 298 299 298 298 298 297 297 297 297 297 297 296 296 296 296 296 295 294 294 293 293 293 292 293 293 293 294 293 294 293 293 293 292 290 289 284 280 280 280 281 281 283 284 283 284 284 286 286 286 285 285 285
296 296 295 296 295 296 296 295 297 297 297 297 297 298 299 299 299 299 299 299 299 299 299 299 299 299 299 299 298 298 298 298 298 298 298 298 297 297 297 297 297 297 297 297 297 296 296 296 296 295 294 294 294 294 293 293 293 292 292 292 292 292 291 290 291 290 291 289 285 280 278 279 278 279 282 284 284 283 283 283 282 283 284 284 284
296 295 295 294 294 294 295 295 296 296 296 297 297 297 298 298 298 299 298 299 298 298 298 298 298 298 298 298 298 298 297 298 298 298 297 297 297 296 296 296 296 296 296 296 296 296 296 296 295 295 294 294 294 293 292 292 292 292 292 292 291 290 289 289 289 289 289 288 283 282 280 279 279 278 279 282 283 284 284 283 282 282 283 284 284
294 294 294 294 293 294 294 294 295 296 295 295 295 296 296 296 296 297 296 297 297 297 297 297 297 296 297 297 297 297 297 297 297 297 297 296 296 296 296 296 296 296 296 296 295 295 295 295 295 295 294 294 294 294 293 292 292 291 291 291 290 289 289 288 288 288 288 288 286 282 280 279 277 276 277 279 280 280 282 284 284 282 281 282 284
293 293 292 293 293 293 294 294 295 295 294 295 295 295 295 295 295 296 295 296 298 297 296 296 295 295 295 296 296 296 296 297 297 296 296 295 295 295 295 295 295 295 294 294 294 294 294 294 294 294 294 293 293 293 293 293 292 290 290 290 290 289 289 288 288 287 287 288 287 282 280 278 278 277 276 277 279 281 282 283 283 283 282 281 280
291 292 292 292 293 293 294 294 295 295 295 294 294 294 294 294 294 293 294 294 294 295 294 295 295 295 294 294 294 295 296 297 295 295 295 296 295 295 295 294 294 293 293 292 291 292 292 292 293 292 292 291 291 292 293 293 292 292 291 290 290 289 289 288 287 287 287 287 287 284 280 280 278 278 278 278 279 278 279 281 281 280 279 280 281
291 291 292 292 293 293 293 294 293 293 293 293 293 293 294 293 292 292 292 291 293 291 293 294 293 294 294 294 294 295 296 296 294 296 296 296 295 294 294 293 293 292 291 291 291 290 290 290 290 291 291 290 290 291 292 292 292 292 292 291 291 291 289 289 288 288 287 287 288 286 284 282 280 279 279 279 278 278 278 279 280 279 280 280 280
291 291 292 293 293 293 293 293 292 292 292 293 292 291 292 291 291 291 290 290 291 289 290 292 292 292 294 292 292 293 294 293 295 295 295 296 295 294 293 292 292 291 291 291 291 290 290 290 290 291 291 290 290 290 290 291 292 292 292 292 291 292 292 291 290 288 288 288 287 287 287 285 283 280 279 278 278 277 277 277 279 279 279 279 281
291 291 291 290 290 290 290 290 290 290 291 291 290 291 290 290 289 289 288 288 289 289 290 289 289 288 289 289 290 290 289 293 295 295 295 295 295 294 292 291 291 290 290 290 290 290 289 289 289 290 291 289 289 290 289 289 289 290 291 291 291 291 292 293 293 291 290 289 288 288 288 288 285 283 281 280 280 278 278 277 278 279 279 279 280
289 288 288 289 288 288 289 289 290 289 290 289 289 289 289 288 287 287 287 288 288 287 287 287 287 287 287 289 289 288 289 291 294 294 294 294 294 294 291 290 289 289 289 289 290 289 290 289 289 289 289 289 289 289 289 289 288 288 288 288 288 289 290 291 291 291 290 290 290 289 289 289 288 285 283 282 279 279 278 278 278 278 278 279 280
287 288 286 287 286 287 287 287 288 288 288 289 288 288 287 287 287 286 287 287 287 286 287 287 287 287 287 287 288 289 290 292 293 294 294 294 294 293 290 289 289 288 288 288 289 289 289 290 289 289 288 288 288 288 288 288 287 287 287 286 287 287 287 288 288 288 289 289 289 290 289 287 287 283 282 283 282 282 281 281 280 279 280 279 277
286 285 285 285 286 286 286 286 286 286 287 287 287 287 286 286 286 285 287 286 286 286 286 287 286 286 286 286 287 286 286 292 293 293 293 293 294 291 289 288 288 288 288 288 287 288 288 288 288 288 287 287 287 289 289 288 287 286 285 285 285 285 286 287 289 289 289 289 289 288 286 284 286 283 282 282 282 282 282 280 279 279 277 275 276
284 284 284 285 285 285 285 285 285 285 286 286 286 286 286 286 286 287 287 285 286 286 285 285 285 286 286 286 286 286 286 288 291 292 292 293 292 288 287 287 287 287 287 287 287 287 287 286 286 287 286 286 287 290 290 288 286 285 285 284 284 284 284 285 288 290 290 290 290 291 291 291 292 291 288 288 284 282 279 278 278 278 276 275 275
282 282 283 283 284 283 284 283 284 284 284 285 285 285 284 284 285 287 286 285 284 283 284 284 285 285 285 285 285 285 285 286 289 291 291 292 290 287 286 286 286 286 286 286 286 286 287 287 287 287 287 286 288 290 291 288 285 285 283 283 283 283 283 283 284 286 289 289 289 289 290 290 291 292 291 289 288 285 280 278 279 278 276 277 275
281 282 283 283 283 283 283 283 282 283 283 283 283 284 284 285 284 283 284 284 284 283 284 284 284 284 285 286 287 286 284 285 288 290 290 291 289 285 286 285 285 285 285 285 285 286 286 286 286 287 287 287 289 290 290 288 285 284 283 283 282 282 283 282 283 283 283 284 285 285 285 287 287 287 286 289 288 285 282 281 280 278 277 277 278
280 281 281 282 282 282 282 282 282 282 281 281 281 282 283 282 282 282 282 283 283 283 283 283 284 284 283 284 285 285 285 283 284 289 290 290 290 286 285 284 285 286 286 285 285 285 285 284 285 288 289 289 289 290 290 290 285 284 283 282 282 281 281 282 283 282 282 283 283 283 284 284 283 283 282 283 285 284 282 282 282 281 279 278 278
279 279 280 280 280 280 280 280 280 280 280 281 281 282 281 281 281 281 282 282 282 283 283 282 283 282 282 282 281 281 282 280 282 287 288 288 289 288 284 284 284 285 285 285 285 284 283 282 281 285 289 289 289 289 289 290 288 284 283 282 282 282 284 282 282 283 281 281 281 281 281 281 281 281 281 281 281 282 282 282 281 281 280 279 278
278 278 278 278 278 278 278 279 279 281 280 280 280 280 280 281 281 281 280 280 281 281 282 282 282 281 281 281 280 280 281 282 279 283 285 285 286 286 282 282 284 284 284 284 284 283 283 283 283 284 287 288 288 289 289 289 289 286 284 286 287 287 284 283 280 281 280 279 278 278 277 276 277 278 278 279 279 280 280 279 280 279 280 280 280
277 277 277 277 277 277 277 277 278 279 279 279 279 279 279 279 280 280 280 280 280 280 280 280 279 279 280 280 279 279 280 281 281 280 282 283 284 284 284 283 285 283 282 282 283 283 283 282 283 284 286 287 288 288 289 289 287 286 287 287 287 287 285 282 280 278 277 277 276 276 275 275 276 276 276 276 277 278 278 278 278 278 276 273 273
276 276 276 276 276 277 277 276 277 277 277 277 278 278 277 278 278 278 278 278 277 277 278 277 277 276 276 277 278 278 278 278 280 280 280 282 282 283 283 283 283 279 280 280 282 283 283 282 282 284 285 285 287 287 287 287 285 287 287 287 287 286 284 282 280 279 278 276 276 275 274 274 274 275 275 275 275 275 273 273 273 273 272 270 270
275 274 274 274 273 273 274 275 275 274 275 276 275 276 275 275 275 275 275 275 275 275 274 275 274 274 275 275 275 276 276 276 277 279 279 279 280 281 281 281 281 282 278 278 279 279 282 283 283 283 284 284 284 285 285 285 286 286 286 286 284 283 282 281 281 280 278 277 277 276 276 275 275 274 274 273 271 270 269 268 267 267 267 266 266
272 272 272 272 272 271 272 273 273 274 274 275 275 275 274 274 274 273 273 273 272 273 272 273 273 273 272 272 273 274 274 274 274 275 277 277 278 279 279 280 279 280 279 278 280 281 281 281 281 281 281 282 282 282 282 282 284 284 284 284 283 282 282 281 281 281 280 279 278 277 276 274 271 271 271 271 271 270 268 267 267 266 268 267 267
271 271 270 271 270 270 270 271 272 273 272 272 272 272 272 272 273 273 273 272 271 271 271 272 272 271 270 271 271 272 271 272 272 273 274 273 274 275 276 276 278 278 277 277 278 277 279 279 279 280 280 281 281 282 282 282 282 282 281 282 282 282 282 281 281 280 279 278 277 276 272 270 269 269 269 270 269 268 268 267 268 267 267 267 266
270 269 270 270 269 269 269 272 271 270 271 271 270 270 271 273 273 273 272 273 273 273 272 273 273 272 271 272 271 270 270 272 274 275 275 276 276 276 276 276 276 276 275 276 277 278 278 279 279 277 277 277 278 278 278 279 280 280 280 280 280 280 281 281 280 279 278 277 274 271 268 269 268 269 269 268 268 267 267 267 267 266 266 266 263
268 268 268 268 268 269 269 269 269 268 269 272 272 272 271 272 273 272 274 274 274 273 272 273 273 273 273 273 271 271 273 273 274 276 276 277 276 275 274 275 276 275 276 279 278 278 277 277 277 276 276 277 277 277 277 278 277 279 279 279 279 279 279 278 277 277 276 274 271 270 268 269 267 268 267 267 266 266 267 266 267 265 265 266 265
267 267 267 267 267 267 267 267 267 267 267 266 269 272 274 274 273 271 271 274 275 276 275 272 273 272 270 271 273 270 271 273 276 276 276 276 277 277 277 277 278 277 278 279 278 276 275 275 276 276 275 276 275 275 275 276 276 276 277 278 278 277 277 276 276 276 275 274 272 270 268 268 266 267 266 266 266 265 266 266 265 266 264 265 264
268 267 267 267 268 267 266 266 266 265 265 265 265 267 269 272 273 273 273 272 272 273 274 274 274 274 271 268 270 273 274 274 275 274 274 274 275 275 276 276 276 277 278 277 275 275 274 274 274 275 275 274 274 274 275 274 275 275 274 275 274 274 274 274 274 274 273 272 271 269 268 268 267 267 266 266 265 264 265 265 265 265 264 265 264
265 266 266 266 267 267 266 266 265 264 264 264 264 264 265 265 266 271 271 270 271 272 272 272 272 272 272 271 270 268 271 272 273 272 271 272 273 274 274 275 276 277 277 277 273 273 273 273 273 274 274 274 274 275 274 274 274 274 274 273 272 272 272 272 273 273 273 272 270 269 268 267 267 267 266 265 264 264 264 263 264 263 264 265 264
263 264 264 265 265 265 265 264 264 264 263 263 263 263 263 264 263 264 268 271 270 270 270 269 269 269 270 270 270 270 270 270 271 271 269 271 272 272 274 274 276 276 275 271 271 270 271 271 271 272 272 272 273 273 274 274 274 273 273 272 272 272 272 272 273 272 272 272 270 269 268 267 267 266 265 265 264 263 264 263 263 263 263 263 263
264 263 263 264 263 263 263 263 263 263 264 263 264 263 264 264 263 264 264 264 266 267 268 268 267 267 267 267 266 267 268 268 269 269 268 269 271 272 272 271 273 274 271 267 267 266 268 268 268 269 269 270 271 272 272 272 273 273 273 273 272 270 269 269 270 270 271 271 270 268 268 267 267 266 265 265 264 263 263 262 263 262 262 263 262
263 264 264 264 263 263 263 263 263 263 263 263 263 263 263 264 264 263 263 262 262 262 262 263 265 267 265 265 265 265 266 266 268 269 268 269 271 270 269 265 264 265 266 265 264 264 265 265 266 266 266 266 267 268 268 269 270 271 272 272 272 270 269 269 269 270 270 270 269 268 268 267 267 266 265 264 264 262 262 262 262 262 262 263 263
262 262 262 263 262 262 263 262 263 262 262 262 263 263 263 263 263 262 263 262 261 260 260 261 261 264 266 264 264 263 264 265 266 267 266 267 269 268 261 261 261 262 262 262 261 262 263 263 263 263 263 263 264 265 265 266 267 268 269 270 271 271 269 269 269 269 270 270 269 269 268 267 267 266 266 265 264 263 263 263 262 262 262 262 263
261 261 261 262 262 262 262 262 262 263 263 263 262 262 262 262 262 261 261 260 260 260 260 261 261 261 263 262 263 262 263 263 265 264 264 264 266 262 258 258 257 258 260 260 260 261 260 261 262 261 261 262 262 263 263 263 265 265 266 267 268 269 269 269 269 269 269 269 269 268 268 267 267 267 266 264 264 264 263 263 262 262 262 262 262
261 261 260 261 261 261 261 260 261 262 261 262 261 261 260 261 261 261 261 260 261 260 260 260 261 260 259 259 261 260 261 261 263 261 262 261 260 257 257 257 258 257 257 258 259 258 258 259 260 260 260 260 260 261 261 261 262 263 263 264 266 267 268 268 267 267 268 268 267 267 267 267 267 266 266 265 264 264 263 262 262 261 262 261 262
259 261 261 261 261 260 259 259 260 260 260 260 259 260 259 260 260 260 259 260 259 259 260 259 259 259 258 259 257 259 259 256 258 257 257 256 256 256 254 255 255 255 256 255 256 256 255 256 258 259 258 259 259 260 260 260 260 260 261 262 263 264 265 264 264 265 265 266 266 267 266 266 266 266 266 265 264 264 263 262 262 262 261 261 261
257 257 259 260 258 259 259 259 259 258 259 258 258 259 258 258 259 258 258 258 258 258 258 258 257 257 258 257 256 258 256 256 256 257 256 256 255 255 254 253 253 254 254 253 254 253 253 253 255 255 256 257 258 258 259 259 259 260 260 260 261 261 263 263 263 264 264 264 265 265 265 265 265 265 265 265 264 264 264 263 262 262 262 262 261
255 257 258 259 259 258 258 258 258 258 257 257 258 258 257 258 258 258 257 257 257 257 257 257 257 257 257 258 260 259 254 253 254 254 254 254 254 254 254 254 254 253 254 254 254 254 253 253 254 255 255 256 257 257 257 257 258 258 258 259 259 260 261 261 262 263 263 262 262 263 263 263 263 264 263 263 265 264 264 263 263 262 262 262 261
255 255 256 256 258 257 257 257 257 258 257 257 257 257 257 257 257 256 256 256 256 256 255 255 256 256 258 260 259 259 254 252 253 253 253 253 253 253 255 254 255 254 253 254 254 254 254 254 254 254 254 255 255 255 256 255 256 256 257 257 257 258 258 259 260 261 262 262 262 261 262 263 263 263 263 264 263 263 263 263 263 262 262 261 261
254 254 254 256 255 256 255 255 256 255 255 255 255 257 256 255 255 255 255 255 255 255 254 254 255 255 256 258 258 258 254 253 255 253 253 253 254 254 254 254 254 254 253 254 254 254 254 253 253 253 253 254 254 254 254 254 255 255 255 255 256 256 256 257 258 259 259 259 260 261 262 261 261 261 261 261 261 261 261 262 262 262 261 261 260
254 254 254 255 255 255 255 254 254 254 254 255 256 255 255 255 254 255 255 255 255 255 255 255 255 255 254 255 256 255 253 254 253 253 253 254 253 253 253 253 252 252 252 252 252 253 253 252 252 253 253 253 254 252 252 253 253 253 253 254 254 255 255 256 256 256 257 257 257 259 260 260 260 260 260 260 260 260 261 260 260 260 260 260 260
253 253 253 253 253 253 253 254 254 254 255 255 254 254 255 255 255 255 255 254 254 255 255 255 255 254 254 253 253 253 253 252 253 253 252 252 252 252 252 251 251 251 251 251 252 252 251 252 251 250 251 251 251 251 252 252 251 252 252 252 252 253 253 254 254 254 254 254 255 256 257 259 260 260 259 259 259 259 259 259 259 258 258 258 259
254 253 253 253 252 253 253 253 254 253 253 253 253 253 254 254 254 254 254 254 254 254 253 254 253 253 253 252 252 252 251 251 250 251 252 251 251 250 250 250 250 250 250 250 251 251 251 251 251 250 249 248 248 248 250 248 250 249 249 249 250 251 252 251 251 252 251 252 253 254 255 256 257 259 258 259 258 259 259 259 258 258 258 258 258
252 252 253 252 252 253 253 253 253 253 253 253 253 253 253 253 253 254 254 254 253 253 252 252 252 251 251 250 250 249 250 250 250 250 250 250 249 249 249 250 249 247 248 249 247 248 248 249 247 246 246 245 245 246 246 247 246 246 247 248 249 250 249 249 250 249 249 251 252 252 253 253 255 256 257 257 257 258 258 258 258 257 257 257 257
252 252 252 252 252 252 252 252 252 253 253 252 252 252 252 252 251 252 251 251 251 251 250 249 249 248 249 248 249 248 248 248 248 248 248 247 246 246 246 244 245 245 244 244 244 245 245 243 243 243 245 245 245 246 246 246 245 246 246 246 247 248 251 252 248 249 248 248 249 250 251 252 253 254 255 256 256 256 256 257 257 256 256 256 256
251 251 251 251 251 251 251 251 251 251 250 250 250 250 250 250 249 249 249 249 249 248 248 248 248 247 246 247 246 246 246 247 246 245 245 245 244 245 244 243 245 243 243 243 243 243 242 243 244 244 244 244 244 245 245 244 246 246 245 245 249 253 253 253 252 249 251 250 249 249 250 251 252 253 254 255 255 256 256 256 256 256 256 256 255
251 251 251 250 250 250 250 249 249 249 249 249 249 248 249 248 248 248 248 248 248 247 247 246 247 247 246 246 246 246 245 246 245 246 245 244 243 242 243 243 242 242 242 241 243 242 242 242 242 241 243 243 244 244 244 244 244 246 244 247 251 252 253 253 253 252 252 247 249 248 249 250 250 251 252 253 254 254 255 255 255 255 255 255 255
250 250 250 250 249 249 249 247 248 248 247 248 247 247 247 247 247 247 247 247 247 247 246 246 245 245 245 245 245 245 245 245 246 245 245 244 244 243 244 244 243 241 241 239 241 243 242 242 241 243 242 244 244 245 243 245 243 246 249 251 252 252 252 252 251 251 251 251 247 249 249 249 249 249 250 252 253 254 254 254 255 254 254 254 254
Wind_Speed
7 7 7 7 6 7 6 6 6 6 6 6 7 6 5 6 6 7 5 8 8 9 10 11 11 10 10 10 10 10 10 10 9 9 10 10 10 10 10 11 11 10 8 9 8 7 9 10 10 10 7 9 9 8 8 8 7 8 7 7 7 7 8 8 9 7 2 1 3 5 6 8 6 7 8 6 5 3 3 3 3 3 2 2 1
7 7 6 6 7 6 6 5 6 6 6 7 7 7 7 7 7 6 8 7 7 8 8 7 8 8 9 9 9 9 9 10 9 9 10 10 10 8 9 10 11 10 8 10 9 8 8 10 10 9 8 10 9 9 9 8 8 8 8 8 8 8 8 8 9 8 8 1 2 2 4 6 9 6 11 10 8 5 6 5 4 3 2 2 1
7 6 6 6 6 6 6 6 6 7 7 7 8 8 8 7 7 8 8 7 6 7 7 7 8 8 8 9 9 9 10 9 9 10 11 11 11 10 10 10 11 11 11 12 10 9 9 10 11 9 6 8 10 9 7 8 7 9 9 8 9 9 8 8 8 8 8 7 5 6 7 7 10 10 10 8 7 7 8 7 6 4 3 1 0
3 4 4 5 5 5 6 6 7 7 8 8 8 8 7 6 5 6 6 5 7 6 6 7 7 8 9 8 9 9 9 9 9 10 11 11 11 11 10 11 11 11 12 11 10 10 11 10 11 9 8 10 9 8 7 7 8 9 9 9 9 10 8 8 10 9 8 8 7 9 8 8 8 4 6 5 7 8 8 6 4 6 5 3 2
4 4 5 5 5 6 6 6 7 7 7 6 7 6 5 5 5 6 6 6 6 6 5 5 7 8 9 10 10 10 10 10 11 11 11 10 11 11 11 11 12 12 12 12 12 12 12 13 13 10 9 10 9 9 8 9 9 8 10 9 10 10 8 9 10 9 8 10 7 5 5 5 3 4 7 9 6 5 4 8 8 8 6 5 3
3 4 4 4 5 5 5 5 5 5 5 5 5 5 5 5 6 5 6 7 6 6 8 7 8 9 9 9 9 10 9 10 11 12 11 10 10 10 10 11 11 11 11 11 11 11 12 13 12 11 11 12 12 11 9 11 9 9 10 9 9 7 8 8 7 7 8 7 8 5 4 8 5 4 7 9 9 8 6 6 4 4 6 7 7
3 3 3 4 4 4 4 4 4 4 4 4 4 4 5 5 5 6 5 6 6 6 6 6 6 6 7 6 7 8 8 8 9 10 9 9 9 10 10 10 10 10 10 11 10 10 11 11 10 10 12 12 12 12 11 10 10 12 11 10 8 7 8 8 7 8 8 7 5 7 8 7 6 8 5 6 5 7 11 9 9 6 6 8 7
3 3 3 3 4 4 4 4 4 4 4 4 4 4 4 4 5 5 5 5 6 5 5 6 5 5 6 6 6 6 7 7 8 8 8 8 9 10 10 10 10 10 9 10 10 10 10 11 10 11 12 12 12 11 10 11 9 10 9 8 8 9 9 8 8 8 8 8 9 8 7 7 5 1 3 5 6 6 9 11 13 10 10 6 5
2 4 4 4 4 4 4 3 3 3 3 3 3 3 4 4 4 5 5 5 5 5 5 5 5 5 5 6 6 6 7 8 7 8 8 8 9 9 10 10 10 10 9 9 9 10 9 10 10 10 11 13 15 13 13 12 9 10 10 9 9 10 9 7 8 8 8 9 8 5 7 7 8 9 9 11 15 18 10 7 7 6 6 5 5
4 4 4 4 4 4 4 3 2 2 2 3 3 3 3 3 4 4 5 5 5 5 5 5 5 6 6 6 5 6 7 6 8 13 11 8 8 8 8 9 9 9 9 8 8 8 9 8 9 14 15 15 15 16 17 17 16 13 11 10 11 10 10 9 9 9 9 10 11 9 10 10 11 13 13 14 9 3 6 10 10 5 5 6 4
2 2 3 3 3 2 2 2 2 2 3 2 2 2 3 3 3 3 4 4 5 5 5 6 5 5 6 6 7 8 7 7 12 13 13 14 10 8 9 9 8 9 9 9 10 9 8 7 7 10 12 12 13 16 17 17 17 17 16 16 14 13 11 11 11 10 11 11 10 9 11 12 12 11 13 10 9 11 9 9 9 7 10 11 13
2 2 1 0 1 1 1 1 1 1 0 1 1 1 1 1 1 3 3 3 4 4 5 5 5 5 5 5 7 7 7 9 12 12 12 14 13 9 8 8 8 9 9 10 9 9 9 9 8 8 9 10 9 10 13 16 17 17 17 17 17 18 16 14 12 10 11 11 11 12 11 12 11 11 11 9 11 9 7 8 11 13 11 12 11
1 1 2 1 1 1 1 1 0 0 0 0 0 0 0 1 1 2 3 3 2 3 4 4 4 4 4 5 5 5 5 8 11 11 11 13 14 12 7 7 8 8 8 9 9 9 8 9 9 8 9 14 12 9 9 10 13 17 17 16 16 17 18 20 18 14 10 12 13 12 13 11 11 12 13 13 9 11 10 10 12 12 13 13 13
2 3 3 2 2 1 1 0 0 0 0 0 0 0 0 1 2 2 2 2 2 3 3 4 4 4 4 5 5 5 5 6 9 9 10 12 12 11 6 7 7 7 8 8 8 8 9 9 8 8 6 7 8 9 9 10 9 10 10 10 10 12 14 16 16 17 14 13 12 14 13 9 13 7 9 12 14 14 13 15 12 12 13 15 10
4 4 3 3 2 1 2 1 0 0 0 0 0 0 1 1 1 2 2 3 3 4 4 4 4 4 4 4 4 5 5 7 9 10 10 11 12 11 7 7 7 6 6 6 6 7 7 8 7 8 6 7 7 8 9 9 8 9 9 10 11 10 11 11 11 10 10 9 11 13 8 7 8 6 10 13 16 14 15 16 15 15 13 5 4
4 4 4 4 3 3 2 1 1 1 1 0 0 1 1 2 3 3 2 2 2 1 2 1 2 3 3 3 3 4 4 6 7 7 9 10 12 8 6 7 7 7 7 6 5 5 5 6 6 6 6 6 8 13 12 8 8 9 9 9 9 9 10 11 12 13 13 11 10 9 5 4 5 6 8 11 11 9 8 5 4 6 7 7 12
4 4 5 4 4 4 3 2 2 2 1 1 1 1 0 1 1 0 0 1 1 1 3 3 3 3 3 3 4 4 4 6 7 8 8 9 7 5 5 6 6 7 7 6 6 6 5 5 5 6 5 6 8 12 14 12 8 9 9 9 8 7 10 7 12 17 18 18 18 16 12 11 10 7 9 12 10 9 8 8 11 10 10 11 8
4 4 3 3 3 4 4 4 3 3 2 1 1 1 1 1 0 0 0 1 1 2 3 3 2 2 2 3 3 3 3 4 5 6 7 8 7 5 5 5 5 5 6 5 5 5 6 10 9 7 8 8 11 14 15 13 10 9 9 9 9 10 8 5 5 9 15 17 18 18 17 16 14 14 11 12 15 12 12 14 10 9 12 12 12
3 3 2 3 4 4 4 4 4 3 3 2 2 2 2 1 0 1 1 0 1 1 1 1 1 1 0 1 1 1 1 3 4 4 5 7 5 3 4 4 5 5 5 5 4 6 6 7 12 11 9 9 12 13 14 13 10 9 9 9 11 11 8 5 8 7 5 7 8 8 9 11 10 9 9 13 16 15 13 12 9 12 14 12 9
3 3 3 4 4 5 5 5 4 4 3 3 3 2 1 2 3 2 2 1 1 1 1 1 0 1 1 0 0 0 0 2 3 4 4 5 5 3 3 4 4 4 4 5 5 5 5 6 7 11 13 12 11 12 12 13 9 7 6 9 9 11 4 6 7 6 7 8 8 8 9 7 6 6 5 6 9 11 11 9 9 11 12 11 10
4 4 4 5 6 5 5 4 4 4 4 3 2 2 2 3 3 3 3 3 2 1 1 1 1 1 1 2 3 4 3 4 5 9 8 7 6 4 3 3 3 3 4 4 4 4 3 2 3 5 9 11 11 12 12 13 12 8 7 8 7 4 5 5 6 7 7 6 6 7 6 6 6 6 5 5 5 5 6 6 5 6 8 9 9
4 5 5 5 5 5 5 5 4 4 4 4 4 4 4 4 4 4 5 4 3 2 1 1 1 1 1 3 4 4 5 7 4 7 9 9 8 8 3 3 3 3 4 4 3 3 2 3 3 5 9 11 12 12 13 12 13 8 7 8 8 8 6 5 4 5 5 5 5 5 5 5 5 5 6 6 6 6 5 5 4 3 3 4 8
5 5 5 5 5 5 5 6 5 5 5 5 3 4 4 4 4 5 5 4 4 2 3 2 2 2 2 4 5 5 5 5 8 6 8 9 9 8 8 5 7 4 2 3 3 4 3 2 3 6 6 10 11 11 9 11 10 7 9 10 10 11 9 6 5 5 6 5 5 6 6 5 5 5 5 5 5 4 5 4 4 3 2 3 4
5 5 5 6 6 5 5 5 5 5 5 4 4 6 6 5 5 5 5 4 5 5 6 4 4 4 4 5 5 5 4 4 6 8 7 11 10 10 9 9 8 4 3 3 3 4 4 3 3 5 7 7 7 8 9 8 6 9 12 11 11 10 6 6 5 6 6 6 7 7 7 6 5 5 5 5 5 4 3 2 3 3 4 5 6
5 6 6 6 5 5 4 4 5 4 4 4 5 6 5 5 5 5 6 6 5 5 4 4 4 3 5 5 5 4 5 5 6 9 11 11 12 12 12 11 10 10 4 4 3 3 6 8 6 4 4 5 7 9 8 8 11 11 11 10 8 5 5 5 6 5 7 7 7 6 6 6 6 4 3 5 5 6 5 4 6 7 9 10 8
5 5 5 5 5 5 5 5 4 5 5 6 6 6 5 5 5 5 6 5 4 4 3 3 4 4 4 3 4 4 5 5 5 5 6 5 6 10 11 11 9 9 6 5 7 8 8 8 8 7 5 5 4 3 4 5 7 8 8 8 5 5 4 5 6 7 8 7 7 7 6 4 4 4 5 6 6 5 6 6 6 4 5 5 4
5 4 5 5 4 5 4 4 3 4 6 6 7 6 6 5 5 5 4 4 4 4 5 4 5 5 4 5 4 5 4 5 4 4 5 5 5 4 5 5 7 7 6 5 5 5 5 5 5 7 7 8 8 7 6 5 5 5 5 5 5 5 5 6 6 7 7 6 5 5 3 5 6 6 6 6 6 5 5 6 6 5 4 3 5
4 4 5 4 3 3 4 6 6 5 6 6 6 6 5 4 5 5 4 4 4 4 5 4 4 4 4 4 4 5 4 5 5 4 5 4 4 5 4 4 4 4 5 5 4 5 4 5 5 4 4 4 4 3 4 4 4 4 4 4 4 4 5 6 5 5 5 3 3 5 5 5 6 6 5 6 6 5 5 6 6 6 5 6 5
4 4 3 3 4 4 5 6 6 6 5 5 5 4 4 4 4 4 6 5 5 4 4 5 5 5 4 4 3 4 4 5 5 7 6 8 7 5 5 5 5 4 6 10 7 4 4 3 3 3 3 3 2 3 3 3 3 4 3 4 4 5 4 4 5 5 4 4 5 6 6 5 5 4 6 5 6 6 5 6 4 7 5 4 6
4 4 3 4 5 5 6 6 6 6 6 5 3 4 8 10 7 5 4 10 14 14 10 6 6 4 3 4 4 3 4 5 9 11 11 11 11 11 10 11 10 8 9 12 7 3 4 3 3 4 3 3 2 3 3 3 3 3 4 5 4 4 4 4 4 4 3 5 5 5 5 6 6 5 6 6 5 5 5 7 6 6 8 7 7
5 6 6 7 7 7 7 7 6 6 6 6 6 4 2 4 9 11 11 11 11 12 13 13 14 13 8 3 6 11 11 13 13 12 12 12 12 12 12 12 12 12 12 7 3 3 3 4 4 3 3 3 2 3 3 3 4 4 4 4 3 2 1 2 3 2 2 3 3 4 5 6 7 6 7 6 6 5 5 4 5 6 7 8 7
6 6 6 5 7 7 6 6 5 6 6 6 6 5 5 4 5 7 9 10 11 12 13 13 13 13 13 11 7 5 10 11 12 12 12 12 12 13 13 13 12 12 10 8 3 3 4 4 4 5 4 4 3 3 3 4 4 4 4 3 4 3 2 4 4 2 3 3 4 4 5 6 6 6 5 5 5 6 6 6 7 7 6 6 7
6 5 5 6 6 7 6 6 5 5 5 6 5 5 5 5 4 5 5 6 10 11 12 12 12 12 13 13 14 11 10 11 12 12 13 13 13 12 12 12 11 12 11 7 4 4 5 5 5 5 5 5 5 5 5 5 4 4 4 4 3 4 4 4 2 2 4 4 4 4 5 5 4 4 4 5 6 7 7 7 6 6 6 6 5
6 6 5 5 6 5 5 5 5 5 4 4 5 5 5 4 4 5 5 6 6 7 8 11 11 9 11 13 13 13 13 13 12 11 13 13 14 13 11 7 11 14 12 6 6 6 6 5 6 6 6 6 6 7 6 6 6 6 5 5 5 3 2 2 2 4 4 4 4 4 4 5 5 6 6 6 6 5 6 6 7 7 8 8 9
6 8 12 8 5 5 5 5 5 5 5 5 5 5 5 5 5 4 4 4 5 5 6 6 8 10 6 8 12 14 13 14 12 11 13 14 15 13 10 8 6 6 7 6 5 5 5 5 5 6 6 6 6 7 7 7 7 7 7 6 6 3 1 2 4 3 3 3 3 4 5 6 6 6 7 7 7 7 8 7 8 8 9 8 8
6 6 6 7 6 5 5 5 5 5 5 4 5 5 5 5 5 4 4 4 3 4 3 4 3 6 7 10 12 13 14 15 12 11 13 14 15 13 7 6 5 5 5 5 5 5 5 5 5 5 6 6 7 7 7 7 7 7 7 8 7 6 4 2 2 2 3 3 4 5 5 5 6 6 6 6 8 9 8 8 8 8 8 8 7
6 5 5 5 5 4 5 4 4 5 4 5 4 4 4 4 4 2 4 3 3 3 4 5 4 4 4 4 8 11 13 14 11 11 11 12 13 8 5 5 4 4 5 4 5 4 5 5 5 5 5 5 6 6 6 7 7 7 8 8 8 8 7 6 4 3 3 4 4 4 5 6 6 6 7 8 7 7 7 7 7 8 8 9 7
6 5 5 5 4 4 4 4 4 6 4 3 4 3 3 3 3 3 4 3 4 4 4 4 4 4 6 6 8 6 7 10 7 7 6 7 7 5 5 4 3 4 4 4 5 4 4 5 5 5 5 6 6 6 6 6 7 7 8 8 8 7 10 8 7 5 5 4 4 4 4 5 5 6 6 7 8 7 7 7 7 7 7 8 8
4 7 9 9 6 4 3 3 3 4 3 3 4 3 4 3 4 3 3 3 3 4 4 4 4 4 4 3 5 6 6 6 6 5 5 5 3 4 3 5 4 3 3 3 3 4 4 4 5 5 5 5 6 6 6 6 7 7 7 7 7 6 7 6 6 6 5 4 4 4 4 5 5 5 6 6 7 6 6 7 8 8 8 8 9
4 3 5 7 4 4 4 4 2 2 3 3 3 3 3 3 3 3 4 4 4 4 4 4 5 5 3 2 3 3 4 4 5 5 5 5 4 4 3 2 3 2 3 2 4 3 4 4 5 5 5 5 5 5 6 6 6 6 7 7 7 7 8 7 6 6 5 5 4 4 5 5 5 5 5 6 6 6 6 7 8 8 8 8 7
4 4 4 5 5 3 4 3 3 1 2 3 3 3 3 4 3 4 4 4 5 4 5 5 5 5 4 4 6 6 2 3 5 5 5 3 4 4 4 3 3 1 2 2 2 3 3 4 5 4 4 5 4 5 5 5 5 6 6 7 7 7 7 8 8 7 7 6 5 5 5 4 4 5 5 6 6 6 6 5 5 6 6 7 7
4 4 3 3 4 3 3 3 4 3 3 4 3 3 4 4 3 4 5 5 5 5 5 5 5 5 6 10 8 9 4 2 4 6 4 4 3 3 3 3 4 2 2 3 4 4 4 4 3 4 4 4 4 4 4 4 5 5 6 6 6 7 7 7 8 8 9 8 7 5 4 5 5 5 6 5 5 5 5 5 6 6 6 7 7
2 3 2 4 3 3 3 3 3 3 4 3 4 3 4 4 4 5 5 6 5 5 5 5 6 5 5 7 8 8 3 3 4 4 3 3 3 3 4 3 3 3 2 3 4 4 4 4 4 4 4 4 4 4 4 4 5 5 5 6 6 6 6 7 7 7 8 8 9 10 8 5 5 5 5 4 5 4 5 6 6 6 6 7 7
2 3 4 3 3 3 4 3 3 4 3 4 4 5 5 5 4 4 5 5 5 5 5 5 5 5 4 6 5 4 3 4 3 4 4 4 4 4 5 5 3 3 3 3 3 4 4 4 4 4 4 4 4 3 4 4 4 5 5 6 6 7 6 6 6 7 7 7 8 8 9 8 6 5 4 4 4 4 5 5 5 6 6 6 6
4 3 3 3 4 4 4 4 3 4 5 5 4 4 5 4 4 4 5 5 6 5 5 5 5 5 6 5 4 4 4 5 5 5 5 5 5 5 5 3 4 3 3 3 4 3 4 4 4 3 4 4 4 4 4 5 4 5 5 5 5 6 6 6 5 5 6 6 7 8 8 8 8 6 5 5 4 5 5 5 5 5 6 6 7
4 3 4 3 4 5 5 4 5 4 4 4 5 5 5 5 5 5 5 5 6 5 5 5 5 5 5 5 5 6 6 4 5 5 6 5 5 5 4 3 4 4 3 3 4 4 4 4 4 4 4 4 4 5 5 5 5 5 5 4 5 5 6 5 4 5 5 5 6 7 7 8 8 7 7 6 5 5 6 6 4 6 6 7 8
4 4 4 4 4 5 5 5 4 4 4 5 4 4 5 5 5 5 6 6 6 7 6 5 5 5 5 6 6 5 6 5 5 5 5 5 5 5 5 5 5 3 3 4 2 4 4 5 5 3 4 4 4 5 5 6 5 5 4 6 6 6 6 5 5 4 5 5 6 6 7 7 8 7 8 7 6 6 6 6 6 7 7 7 7
4 5 5 5 4 4 5 4 5 6 6 6 5 6 6 6 5 6 6 6 6 6 6 6 6 5 6 6 6 6 5 6 6 6 6 5 5 5 6 5 4 4 3 3 3 3 4 4 4 4 5 4 4 5 5 6 5 6 5 5 6 6 8 7 5 5 5 5 5 5 6 7 7 7 7 7 6 6 6 7 6 5 6 6 5
4 5 5 5 5 5 5 5 6 5 6 6 6 6 7 6 6 6 6 6 6 6 7 7 7 7 6 6 6 6 6 7 7 6 6 7 6 6 6 5 4 3 3 3 4 3 4 4 5 5 5 4 4 5 5 4 5 6 5 5 7 13 14 11 7 6 6 6 5 5 6 6 7 8 7 7 7 7 7 6 6 6 6 6 7
5 5 5 5 6 6 7 6 6 6 7 7 6 7 6 7 7 7 7 7 7 7 7 7 7 7 7 7 8 7 6 7 7 7 7 6 6 5 5 5 5 5 4 4 4 4 4 4 5 4 4 4 5 5 4 5 5 6 5 8 13 15 13 14 12 11 8 5 6 6 6 6 7 7 7 7 7 7 7 7 7 5 6 7 7
6 6 6 6 6 6 6 6 6 7 6 6 7 7 7 7 7 7 6 7 7 8 7 7 7 7 7 7 8 7 7 7 7 7 7 7 6 5 6 6 6 5 4 4 5 4 4 5 4 5 4 4 5 6 4 6 5 6 10 14 15 14 14 12 7 7 9 7 4 6 6 6 6 7 7 7 7 7 8 8 7 7 6 6 7
Wind_Direction
190 197 188 195 191 197 197 192 198 196 200 204 213 217 212 204 202 197 182 197 183 184 185 186 186 189 189 192 192 192 193 195 193 191 197 201 201 202 200 201 205 210 204 211 209 206 211 216 218 217 200 207 214 211 210 206 200 202 197 195 202 197 184 194 216 234 273 312 158 187 180 153 185 194 186 190 188 191 204 232 246 252 285 296 227
200 196 192 188 192 193 193 190 192 192 198 204 210 212 212 208 203 194 201 201 188 190 189 186 186 184 187 193 194 194 196 196 193 192 200 204 207 203 203 203 209 212 205 213 208 208 208 217 222 215 203 209 210 212 208 201 198 198 204 197 205 206 195 185 212 205 219 267 68 63 159 182 193 195 194 187 199 178 198 215 233 228 241 326 243
200 191 187 186 189 187 186 192 190 197 198 204 208 210 212 212 201 204 207 201 198 192 188 186 185 185 190 192 193 196 196 197 196 197 204 205 206 207 205 203 207 209 208 214 208 204 209 217 223 215 203 213 217 216 201 202 195 198 207 201 208 208 201 198 188 211 209 214 179 171 187 191 197 197 205 204 191 181 188 205 208 209 215 202 299
203 182 182 186 183 181 187 193 195 200 204 205 208 211 213 215 205 211 209 200 205 206 192 191 186 189 193 195 195 197 197 198 199 203 206 205 207 207 205 207 210 211 212 212 209 203 209 215 224 213 204 214 219 215 208 198 196 203 205 208 208 209 203 199 202 206 198 187 203 190 193 180 219 203 195 182 183 189 199 194 190 205 207 210 199
175 180 175 183 191 191 201 198 204 208 211 209 215 212 214 210 207 208 200 206 205 197 207 191 193 193 198 198 197 198 199 196 201 206 208 208 208 208 207 209 212 212 212 210 207 205 207 211 217 208 201 212 217 214 205 204 204 201 206 209 209 210 206 202 210 202 192 200 195 205 177 205 196 177 179 177 187 196 194 202 202 198 199 203 204
160 164 171 180 200 205 211 208 213 217 219 222 218 211 209 206 207 211 199 208 204 201 196 200 198 202 203 203 200 203 199 200 204 207 207 206 208 210 211 212 214 216 216 215 211 209 210 213 214 205 202 207 215 213 207 210 205 208 212 211 213 208 209 216 212 212 212 208 174 162 186 184 188 197 192 187 179 189 208 223 208 203 189 205 215
162 161 171 180 198 214 212 217 216 218 217 218 216 210 208 207 201 207 205 204 205 210 208 204 211 205 211 204 206 204 204 207 211 212 210 206 208 211 215 217 217 218 220 218 216 214 216 216 214 208 208 210 213 211 207 208 207 214 209 211 206 199 208 211 207 209 209 201 190 191 181 205 184 190 197 192 197 200 197 196 223 205 209 208 206
158 167 170 190 198 217 216 210 208 212 209 208 211 212 209 206 206 205 192 204 206 207 207 206 213 204 211 207 210 204 205 210 214 214 212 208 208 213 213 215 217 219 220 220 217 217 216 216 215 212 211 212 211 213 204 209 209 216 212 206 201 200 208 206 204 206 208 211 200 191 194 174 189 107 105 150 196 246 223 203 208 196 211 210 209
179 172 178 189 206 204 208 202 193 191 195 201 203 211 210 205 201 198 194 200 202 206 203 199 202 210 213 210 211 206 208 215 213 210 208 210 208 213 214 218 218 220 220 219 219 218 216 216 216 214 214 214 212 212 210 207 199 210 212 203 205 203 209 201 204 201 214 213 219 178 182 188 190 168 172 189 199 209 193 187 220 207 191 196 226
172 181 181 196 201 194 184 180 174 177 185 199 211 211 207 209 199 201 204 200 197 196 201 205 202 203 207 214 213 212 216 218 218 214 207 206 210 212 212 217 216 218 218 221 226 223 221 219 220 217 217 216 215 215 215 211 209 207 206 198 202 202 204 202 202 203 205 211 216 192 198 203 192 196 195 206 200 136 151 188 206 181 148 209 245
179 173 201 206 191 174 154 184 173 184 206 199 205 203 217 211 203 207 211 205 201 202 197 210 213 207 207 206 213 217 218 219 218 217 215 208 205 209 210 214 210 213 212 212 220 220 227 223 224 225 225 224 222 221 219 218 217 214 211 205 201 196 199 203 210 200 205 214 213 204 211 210 207 198 207 193 187 196 190 183 189 167 193 189 216
177 192 219 121 110 130 155 162 131 201 135 197 206 223 219 222 222 217 219 224 229 206 209 214 216 217 216 215 215 218 223 222 221 222 217 217 213 212 210 208 209 210 211 213 215 214 217 219 220 218 221 219 218 223 226 226 224 221 219 213 209 208 204 200 203 206 209 214 215 216 212 216 205 194 202 180 197 187 191 175 190 193 197 207 213
171 139 108 80 59 47 47 62 53 56 282 220 305 56 23 311 296 295 264 255 258 248 251 246 247 254 239 240 246 244 242 236 233 229 224 221 222 219 221 214 210 214 212 213 213 213 214 216 222 219 223 218 219 219 217 227 230 230 229 227 224 216 215 216 211 209 202 214 220 222 215 214 209 209 193 194 169 184 184 194 202 201 207 210 215
129 110 93 89 91 83 106 96 136 265 204 100 97 96 111 241 245 247 249 277 257 263 273 260 259 251 244 244 251 258 253 262 250 243 238 233 231 228 232 227 225 219 218 215 216 216 215 218 222 227 220 215 215 214 217 220 221 227 230 228 228 232 231 229 226 222 213 215 217 226 223 202 223 200 183 172 173 192 188 207 198 202 207 216 211
89 93 90 79 70 55 41 49 27 346 14 100 111 152 214 258 269 256 229 228 232 240 243 253 251 241 245 238 242 252 254 255 252 247 242 236 234 230 229 229 234 235 232 224 221 219 218 221 225 227 218 215 212 207 213 217 218 225 226 228 228 229 229 230 227 228 228 226 226 231 227 206 221 183 179 183 191 195 192 198 193 200 207 203 195
71 54 56 51 43 35 50 22 358 354 349 354 126 222 234 226 229 250 233 251 258 235 278 228 244 256 251 243 246 262 270 267 260 251 242 239 237 233 228 227 230 230 231 231 229 225 219 218 222 226 220 218 213 208 210 208 217 224 226 231 232 232 234 231 230 233 233 232 232 231 213 208 185 184 187 187 196 194 196 192 173 182 171 182 213
52 50 50 41 29 28 30 41 14 5 13 27 2 325 335 318 307 255 346 306 264 282 251 245 244 244 255 244 241 253 264 265 255 243 237 239 238 238 230 232 233 235 237 232 232 226 221 210 210 216 219 223 210 209 213 204 219 222 227 232 233 232 238 232 231 236 238 241 246 247 237 229 229 202 179 192 187 176 160 170 198 178 181 206 211
44 47 45 38 35 36 35 43 38 22 35 29 6 358 4 6 355 204 168 258 309 269 256 255 264 226 216 246 226 238 261 286 265 246 242 243 231 226 228 232 245 243 249 244 240 242 235 227 220 222 222 222 207 206 208 203 215 219 221 230 237 238 240 215 221 235 236 239 241 242 243 244 242 245 229 198 193 176 175 201 194 164 202 207 208
28 16 11 40 53 47 50 41 36 41 35 19 42 40 13 357 309 60 59 74 285 302 7 73 9 5 330 217 297 332 315 332 308 268 256 255 245 233 230 232 243 249 250 255 251 241 243 237 231 228 229 228 223 222 216 206 217 215 216 222 233 237 232 197 217 220 216 225 236 234 242 238 237 233 234 218 199 194 198 201 171 185 204 210 204
335 344 29 52 51 43 40 38 27 39 29 6 16 10 352 25 15 41 5 36 2 355 39 64 86 318 2 93 84 171 302 320 337 292 274 274 259 236 240 237 253 259 254 248 248 251 241 237 236 231 229 227 226 228 226 213 215 219 211 225 230 243 207 207 220 203 211 210 214 212 216 213 205 218 214 216 214 205 206 205 196 196 204 206 204
352 9 43 51 46 44 33 29 25 18 9 351 334 357 47 40 12 14 354 334 352 5 23 34 54 330 341 77 83 40 65 53 29 31 14 2 332 289 250 255 266 270 267 276 256 247 261 249 234 229 235 237 234 233 232 227 223 218 218 229 229 227 188 214 227 210 217 220 218 215 214 199 193 188 188 196 208 218 221 217 209 214 208 207 210
3 41 44 50 48 40 35 12 16 17 356 359 13 26 24 32 18 21 6 8 16 356 4 2 30 358 16 79 75 67 51 61 36 25 25 12 8 355 344 284 283 296 307 290 282 281 249 252 260 233 225 229 233 237 238 237 235 232 225 228 233 228 220 219 210 215 223 227 226 227 217 199 196 199 197 194 194 198 206 214 211 203 215 233 220
17 45 43 43 42 40 31 24 13 10 3 355 23 41 21 25 15 37 16 0 357 357 347 13 42 17 14 32 60 54 49 48 53 36 19 17 9 9 1 5 353 7 332 296 293 284 282 326 358 348 277 236 233 237 238 242 245 240 240 237 234 235 235 224 213 206 213 219 217 226 221 205 205 210 197 201 199 190 204 202 198 165 113 58 60
18 38 41 38 32 30 32 29 15 9 8 13 33 42 25 18 37 36 26 28 31 22 16 25 20 26 29 38 46 42 36 39 49 43 23 17 19 19 14 8 4 352 4 337 339 337 355 17 333 332 350 328 290 261 255 255 245 246 252 249 247 243 229 219 211 210 208 211 217 220 220 211 204 207 205 186 174 159 112 68 66 67 96 73 50
31 34 39 35 28 11 17 37 29 12 9 30 42 38 29 33 41 19 38 37 41 44 16 26 28 28 38 33 25 18 16 38 37 30 25 12 9 10 10 10 6 8 4 329 332 312 310 314 332 334 316 303 298 295 288 277 271 270 266 262 255 240 232 219 220 212 218 221 220 218 218 207 200 187 147 122 107 86 97 65 60 63 61 69 61
36 32 27 39 27 24 25 11 23 25 19 30 40 38 41 34 46 27 36 37 34 55 32 43 44 44 49 32 24 8 11 43 34 23 9 0 355 359 3 2 356 355 353 343 343 348 341 342 337 331 325 312 296 266 251 259 267 273 278 281 268 251 235 232 230 229 233 231 219 214 211 169 141 126 121 129 135 155 135 130 123 110 123 119 95
37 31 28 30 27 30 29 19 15 32 36 31 29 28 33 36 45 45 41 31 18 20 36 38 34 34 30 14 16 6 11 27 20 30 349 0 346 349 352 353 347 354 354 334 337 320 323 317 307 306 298 286 279 269 261 252 254 257 258 253 252 247 242 237 233 231 231 224 213 197 140 121 113 118 146 150 154 154 151 153 153 155 142 139 132
37 30 32 29 29 42 41 29 29 31 48 44 33 24 13 39 46 54 36 17 29 24 42 26 35 25 30 6 27 357 13 22 0 26 357 2 1 2 353 354 346 353 336 319 319 313 310 298 295 283 285 292 288 285 284 273 263 262 265 264 262 261 256 249 243 234 224 197 137 105 109 148 152 160 147 157 163 157 156 159 162 157 148 141 104
64 50 40 32 26 32 39 38 33 30 33 55 64 60 43 1 56 40 39 33 32 49 38 28 29 18 32 26 37 0 20 13 2 13 10 8 0 357 342 341 327 319 318 319 315 319 319 300 284 280 280 272 291 301 294 291 289 282 274 274 269 267 255 242 230 223 194 154 168 172 165 160 152 156 150 157 169 162 166 143 156 144 150 156 174
71 47 45 40 32 33 35 33 30 28 28 18 35 60 71 71 55 61 19 36 47 51 60 54 43 29 31 4 31 48 353 346 10 18 13 7 2 359 351 345 339 331 324 324 324 310 295 290 288 280 251 272 263 273 275 281 286 282 288 283 279 275 264 248 233 219 190 193 180 164 164 159 156 170 172 175 164 155 178 167 164 154 160 177 172
42 38 28 29 32 28 29 29 27 28 18 22 11 18 32 64 80 68 55 55 48 44 48 47 46 45 47 19 359 15 11 8 8 15 7 357 354 350 345 338 336 333 327 321 355 318 285 294 284 286 263 251 257 259 277 279 276 281 283 284 307 280 279 301 277 244 189 183 161 162 165 170 178 180 179 182 171 162 158 155 154 170 177 181 174
37 31 25 15 32 36 32 30 30 34 21 20 20 21 17 24 14 64 80 57 50 54 48 44 41 38 36 34 33 5 6 9 7 8 3 357 352 346 339 337 335 336 345 6 41 332 8 12 359 360 355 12 319 307 295 270 269 275 273 282 279 259 204 242 247 190 211 181 170 169 176 184 182 183 178 171 158 165 170 173 178 185 186 189 188
44 30 24 27 29 37 38 32 24 31 31 23 19 22 31 26 24 339 3 85 80 63 52 42 35 31 30 28 23 21 13 6 7 11 0 355 350 345 345 347 355 10 28 18 22 17 10 19 6 2 2 2 350 351 344 339 312 289 278 265 252 256 228 239 240 173 222 201 182 180 183 178 177 169 167 169 167 179 187 186 189 182 186 186 192
53 49 31 32 37 28 37 29 30 22 27 29 25 30 16 30 23 0 7 348 355 12 24 30 23 27 22 24 20 11 9 6 3 11 5 358 355 357 4 2 12 26 37 33 21 16 3 9 5 3 3 358 354 353 356 344 347 341 329 306 273 251 237 217 162 218 221 203 182 184 175 174 180 172 180 183 189 182 187 188 184 178 193 196 195
42 45 44 41 37 34 32 31 30 27 23 20 27 18 20 15 16 9 9 9 354 348 338 351 1 8 32 21 15 7 3 359 2 10 9 5 5 7 22 23 17 4 21 24 32 8 16 2 7 2 358 358 350 355 352 350 350 347 340 335 321 296 209 190 209 233 224 219 192 185 187 183 189 189 183 183 183 190 196 190 195 196 194 199 195
35 37 33 36 34 31 31 33 28 28 20 13 18 23 11 17 10 3 358 0 356 336 326 329 344 342 22 27 12 6 357 352 357 12 16 12 14 22 33 8 20 2 22 3 29 3 12 354 8 3 355 355 349 351 344 347 342 343 340 339 336 324 314 284 259 236 240 236 223 214 196 192 194 190 193 195 198 199 197 197 197 200 200 200 198
38 33 27 27 27 28 27 25 21 23 22 20 17 28 358 7 353 353 351 343 335 325 329 317 328 340 13 25 11 3 354 346 356 17 16 15 20 28 29 12 6 10 6 8 7 3 6 346 359 1 352 354 346 342 346 344 339 340 338 339 339 342 337 332 330 301 273 258 247 226 212 209 204 198 194 202 207 200 200 198 198 200 202 201 196
41 39 26 25 25 19 25 14 6 29 5 28 2 25 356 352 350 3 355 339 338 339 331 330 351 343 342 336 11 360 351 338 351 11 8 14 14 15 16 356 9 23 5 4 356 7 350 349 348 3 348 347 342 340 344 344 341 344 337 333 330 323 329 333 332 322 300 269 260 242 228 223 214 207 207 208 208 202 197 197 194 199 203 196 198
16 30 33 31 25 25 24 12 2 23 5 25 354 358 12 348 349 356 341 330 333 323 325 335 332 334 330 345 3 333 9 345 352 347 356 350 5 2 18 0 351 21 0 1 355 354 349 354 340 360 344 340 343 338 343 346 344 339 331 330 326 324 330 328 328 318 306 282 261 255 243 237 227 217 214 216 219 210 198 198 201 198 197 200 202
14 353 10 24 22 11 14 354 24 29 2 9 344 340 11 330 338 340 321 320 318 314 312 319 312 304 310 45 334 336 6 330 323 319 333 336 341 349 350 3 348 2 345 3 352 352 2 334 337 347 337 339 332 348 348 345 341 334 338 335 334 334 329 328 323 315 303 291 276 260 244 238 234 225 220 224 222 215 207 204 207 203 207 208 207
10 341 3 355 4 14 351 358 357 16 12 345 317 325 315 325 333 315 315 314 302 299 297 292 295 297 311 316 318 324 334 305 299 307 305 329 326 329 328 348 334 351 336 13 343 351 334 336 334 339 342 332 337 357 341 342 333 339 334 329 332 329 330 330 328 326 314 301 287 275 264 251 238 227 226 232 228 221 226 215 205 209 207 207 198
358 337 353 324 357 346 328 347 329 352 338 309 301 303 308 312 312 300 291 286 286 289 292 289 295 297 306 306 306 305 313 300 294 297 297 306 308 313 318 336 323 359 15 356 338 347 332 330 330 340 333 332 342 335 334 341 328 332 328 329 328 331 332 331 328 330 333 330 315 295 283 268 251 244 243 245 233 233 227 223 215 210 208 205 201
352 318 317 330 331 314 317 308 301 317 298 296 286 294 308 302 286 283 283 284 286 288 285 289 285 288 292 296 299 303 303 282 278 289 301 299 304 312 312 312 322 352 356 344 337 327 325 328 326 322 328 325 327 327 333 329 331 331 332 330 327 322 323 324 329 335 340 342 337 329 313 284 272 258 254 249 243 235 232 229 230 219 215 206 201
316 305 309 307 308 306 297 290 295 289 283 284 289 289 284 274 275 276 280 281 282 281 283 283 287 291 289 294 294 296 288 280 284 287 290 296 296 294 295 298 313 334 324 328 327 320 324 321 315 307 314 320 316 327 329 329 339 340 322 321 315 315 319 323 330 334 339 339 329 329 329 314 291 276 265 262 256 242 242 235 228 229 217 210 197
299 301 309 312 304 302 298 295 295 292 292 295 292 283 281 281 283 280 282 284 282 286 285 285 288 291 290 288 291 282 281 283 281 280 281 281 281 281 286 310 316 323 329 327 315 323 320 308 312 312 302 298 315 330 326 326 325 315 304 302 310 314 315 322 328 343 345 336 328 325 321 324 319 301 279 267 251 250 254 239 231 225 221 211 199
305 308 302 294 297 294 292 291 292 297 298 294 290 290 288 290 283 282 278 276 279 279 280 284 283 286 288 286 282 282 276 279 283 279 279 279 279 285 294 305 305 303 311 313 316 314 310 312 305 302 301 308 317 322 316 309 302 298 301 304 305 304 308 312 333 344 338 334 322 319 313 313 311 313 303 281 266 252 255 249 229 221 218 214 212
284 276 272 275 279 281 286 290 294 282 275 277 274 277 282 278 277 276 275 275 276 276 274 274 277 273 274 273 274 273 277 275 274 278 274 273 277 281 284 279 279 290 297 300 313 316 316 309 307 310 315 312 308 310 307 304 298 300 307 308 306 306 312 310 325 332 326 320 318 320 313 312 304 305 301 299 281 265 252 248 235 223 223 213 217
270 273 270 271 270 275 276 275 276 277 276 267 264 262 263 262 261 261 264 267 270 269 269 266 263 266 270 272 270 270 268 268 268 269 272 273 273 275 275 273 272 270 280 295 304 305 301 298 307 316 308 308 305 300 295 298 301 301 299 300 299 293 297 306 312 308 301 295 302 297 297 295 293 294 296 295 283 270 258 251 243 231 222 219 216
266 264 266 263 263 261 264 266 266 267 261 263 267 268 265 266 262 260 259 262 262 262 260 262 263 263 262 261 263 262 264 267 266 266 265 269 268 268 266 270 272 272 272 280 285 291 298 308 316 306 301 300 306 301 295 302 304 305 299 300 301 303 302 301 302 292 291 288 286 284 287 289 294 294 291 287 280 269 257 252 239 235 224 218 213
259 259 259 260 259 257 257 256 257 254 257 259 259 262 263 261 263 262 262 262 263 261 259 257 260 255 258 263 263 262 261 260 262 263 262 263 264 266 275 278 275 267 266 270 275 282 299 302 294 291 301 305 301 300 300 301 304 303 307 297 293 297 299 304 310 311 302 283 283 273 278 282 287 287 287 285 287 284 273 258 245 232 225 215 212
255 254 255 250 252 250 252 252 254 254 253 254 252 254 255 255 253 256 256 256 256 258 257 254 254 257 256 252 253 253 254 255 255 255 255 256 258 263 262 262 260 258 262 264 273 283 285 284 288 294 302 297 300 300 305 299 294 294 289 289 295 305 314 319 314 317 328 331 314 299 281 276 276 284 286 287 282 277 268 262 250 237 222 218 211